Date String (YYYY-MM-DD hh:mm:ss) UTC,Instrument flags,Ambient pressure (hPa),Sample flow (lpm),Bypass flow (lpm),Sample temperature (°C),Ambient temperature (°C),ASC tube jacket temperature (°C),LED temperature (°C),Box temperature (°C),Sample RH (%),Span deviation,Mass concentration (μg/m³),Mass concentration (μg/m³),Mass concentration (μg/m³)
DateTimeUTC,F1_M11,P_M11,Q1_M11,Q2_M11,T1_M11,T2_M11,T3_M11,T4_M11,T5_M11,U1_M11,ZSPAN_M11,X0_M11,X2_M11,X1_M11
2022-10-20 21:00:00,,0823.3,4.99,0.00,29.7,26.2,00.0,38.3,31.5,05.7,0000.0,0005.64,0001.41,0000.88
2022-10-20 21:01:00,,0823.3,5.03,0.00,29.6,26.5,00.0,38.3,31.3,05.7,0000.0,0004.97,0001.44,0000.94
2022-10-20 21:02:00,,0823.4,4.98,0.00,29.5,26.9,00.0,38.3,31.2,05.9,0000.0,0003.99,0001.50,0001.01
2022-10-20 21:03:00,,0823.3,5.03,0.00,29.5,27.2,00.0,38.3,31.2,05.9,0000.0,0004.15,0001.55,0001.01
2022-10-20 21:04:00,,0823.4,4.98,0.00,29.5,27.5,00.0,38.3,31.3,06.0,0000.0,0005.41,0001.58,0001.00
2022-10-20 21:05:00,,0823.3,4.99,0.00,29.5,27.8,00.0,38.3,31.3,06.1,0000.0,0005.98,0001.57,0001.00
2022-10-20 21:06:00,,0823.2,4.98,0.00,29.6,28.0,00.0,38.3,31.3,06.5,0000.0,0006.98,0001.60,0001.01
2022-10-20 21:07:00,,0823.3,5.01,0.00,29.6,28.1,00.0,38.3,31.4,06.1,0000.0,0007.46,0001.65,0001.04
2022-10-20 21:08:00,,0823.3,5.00,0.00,29.6,28.3,00.0,38.3,31.5,05.9,0000.0,0007.60,0001.84,0001.21
2022-10-20 21:09:00,,0823.2,4.99,0.00,29.7,28.5,00.0,38.3,31.5,06.0,0000.0,0007.22,0002.09,0001.47
2022-10-20 21:10:00,,0823.2,5.01,0.00,29.7,28.6,00.0,38.4,31.6,06.1,0000.0,0007.17,0002.22,0001.63
2022-10-20 21:11:00,,0823.2,4.99,0.00,29.7,27.8,00.0,38.4,31.6,06.0,0000.0,0007.13,0002.31,0001.71
2022-10-20 21:12:00,,0823.1,5.02,0.00,29.7,26.4,00.0,38.3,31.5,06.1,0000.0,0007.03,0002.29,0001.74
2022-10-20 21:13:00,,0823.2,4.99,0.00,29.6,26.2,00.0,38.3,31.4,06.0,0000.0,0007.05,0002.29,0001.75
2022-10-20 21:14:00,,0823.1,5.00,0.00,29.6,26.4,00.0,38.2,31.3,06.0,0000.0,0007.06,0002.35,0001.85
2022-10-20 21:15:00,,0823.1,5.00,0.00,29.5,26.8,00.0,38.2,31.1,06.0,0000.0,0006.59,0002.47,0001.96
2022-10-20 21:16:00,,0823.2,4.98,0.00,29.5,27.1,00.0,38.2,31.1,06.3,0000.0,0005.62,0002.58,0002.05
2022-10-20 21:17:00,,0823.1,5.00,0.00,29.5,27.4,00.0,38.2,31.2,06.4,0000.0,0006.18,0002.68,0002.12
2022-10-20 21:18:00,,0822.9,4.98,0.00,29.5,27.7,00.0,38.2,31.2,06.2,0000.0,0007.01,0002.79,0002.19
2022-10-20 21:19:00,,0823.1,4.98,0.00,29.5,27.9,00.0,38.2,31.3,06.2,0000.0,0008.10,0002.85,0002.19
2022-10-20 21:20:00,,0823.1,5.00,0.00,29.5,28.1,00.0,38.3,31.3,06.1,0000.0,0009.08,0002.72,0002.03
2022-10-20 21:21:00,,0823.1,5.00,0.00,29.6,28.2,00.0,38.3,31.4,06.0,0000.0,0009.22,0002.68,0001.95
2022-10-20 21:22:00,,0823.1,5.03,0.00,29.6,28.4,00.0,38.3,31.4,06.3,0000.0,0009.77,0002.64,0001.91
2022-10-20 21:23:00,,0823.1,5.01,0.00,29.7,28.5,00.0,38.3,31.5,06.3,0000.0,0010.11,0002.74,0002.01
2022-10-20 21:24:00,,0823.2,4.98,0.00,29.7,28.6,00.0,38.4,31.6,06.4,0000.0,0010.21,0002.94,0002.20
2022-10-20 21:25:00,,0823.2,5.01,0.00,29.7,28.4,00.0,38.4,31.6,06.3,0000.0,0010.37,0003.12,0002.37
2022-10-20 21:26:00,,0823.2,5.02,0.00,29.7,26.9,00.0,38.4,31.5,06.2,0000.0,0010.48,0003.21,0002.55
2022-10-20 21:27:00,,0823.2,4.96,0.00,29.7,26.1,00.0,38.3,31.4,06.3,0000.0,0010.62,0003.40,0002.92
2022-10-20 21:28:00,,0823.2,4.98,0.00,29.6,26.3,00.0,38.3,31.3,06.3,0000.0,0011.00,0003.57,0003.20
2022-10-20 21:29:00,,0823.1,4.98,0.00,29.5,26.6,00.0,38.3,31.2,06.3,0000.0,0010.84,0003.74,0003.39
2022-10-20 21:30:00,,0823.2,5.00,0.00,29.5,27.0,00.0,38.2,31.1,06.4,0000.0,0009.91,0003.78,0003.49
2022-10-20 21:31:00,,0823.2,4.99,0.00,29.5,27.3,00.0,38.2,31.2,06.3,0000.0,0008.91,0003.82,0003.55
2022-10-20 21:32:00,,0823.2,5.01,0.00,29.5,27.6,00.0,38.2,31.3,06.2,0000.0,0009.27,0003.87,0003.62
2022-10-20 21:33:00,,0823.1,5.01,0.00,29.5,27.8,00.0,38.3,31.3,06.3,0000.0,0009.19,0003.95,0003.68
2022-10-20 21:34:00,,0823.1,4.99,0.00,29.5,28.0,00.0,38.3,31.3,06.3,0000.0,0009.43,0003.98,0003.71
2022-10-20 21:35:00,,0823.2,5.01,0.00,29.6,28.2,00.0,38.3,31.4,06.3,0000.0,0009.84,0003.94,0003.66
2022-10-20 21:36:00,,0823.1,4.99,0.00,29.6,28.4,00.0,38.3,31.5,06.5,0000.0,0009.67,0003.80,0003.55
2022-10-20 21:37:00,,0823.1,5.04,0.00,29.7,28.5,00.0,38.3,31.5,06.5,0000.0,0009.47,0003.65,0003.42
2022-10-20 21:38:00,,0823.1,5.01,0.00,29.7,28.5,00.0,38.4,31.6,06.5,0000.0,0009.45,0003.42,0003.18
2022-10-20 21:39:00,,0823.0,4.98,0.00,29.7,27.4,00.0,38.3,31.6,06.4,0000.0,0008.78,0003.23,0002.89
2022-10-20 21:40:00,,0823.1,4.99,0.00,29.7,26.2,00.0,38.3,31.4,06.3,0000.0,0007.72,0002.91,0002.51
2022-10-20 21:41:00,,0823.1,4.99,0.00,29.6,26.2,00.0,38.3,31.4,06.3,0000.0,0007.58,0002.66,0002.23
2022-10-20 21:42:00,,0823.0,4.99,0.00,29.5,26.5,00.0,38.2,31.2,06.4,0000.0,0007.52,0002.57,0002.10
2022-10-20 21:43:00,,0823.0,5.03,0.00,29.5,26.8,00.0,38.2,31.1,06.3,0000.0,0006.88,0002.53,0002.08
2022-10-20 21:44:00,,0823.1,5.00,0.00,29.5,27.2,00.0,38.2,31.1,06.5,0000.0,0006.44,0002.42,0002.00
2022-10-20 21:45:00,,0822.9,5.00,0.00,29.5,27.5,00.0,38.2,31.2,06.6,0000.0,0005.09,0002.33,0001.93
2022-10-20 21:46:00,,0823.0,5.00,0.00,29.5,27.7,00.0,38.2,31.3,06.4,0000.0,0004.44,0002.48,0002.07
2022-10-20 21:47:00,,0822.9,5.01,0.00,29.5,27.9,00.0,38.2,31.3,06.4,0000.0,0004.81,0002.79,0002.36
2022-10-20 21:48:00,,0823.0,4.99,0.00,29.6,28.2,00.0,38.3,31.4,06.4,0000.0,0005.56,0003.12,0002.69
2022-10-20 21:49:00,,0822.9,5.01,0.00,29.6,28.3,00.0,38.3,31.4,06.3,0000.0,0005.59,0003.24,0002.87
2022-10-20 21:50:00,,0822.9,5.01,0.00,29.6,28.5,00.0,38.3,31.5,06.4,0000.0,0005.33,0003.23,0002.85
2022-10-20 21:51:00,,0822.9,4.99,0.00,29.7,28.4,00.0,38.3,31.6,06.3,0000.0,0005.61,0003.25,0002.89
2022-10-20 21:52:00,,0822.9,4.98,0.00,29.7,27.1,00.0,38.3,31.5,06.2,0000.0,0005.84,0003.23,0002.87
2022-10-20 21:53:00,,0822.9,5.03,0.00,29.6,26.1,00.0,38.3,31.5,06.3,0000.0,0005.68,0003.18,0002.82
2022-10-20 21:54:00,,0822.9,5.00,0.00,29.6,26.3,00.0,38.2,31.4,06.1,0000.0,0005.66,0003.09,0002.69
2022-10-20 21:55:00,,0823.0,4.98,0.00,29.5,26.6,00.0,38.2,31.2,06.1,0000.0,0005.57,0002.94,0002.55
2022-10-20 21:56:00,,0823.0,5.00,0.00,29.5,26.9,00.0,38.2,31.1,06.2,0000.0,0006.69,0002.96,0002.55
2022-10-20 21:57:00,,0823.0,5.00,0.00,29.5,27.2,00.0,38.2,31.2,06.3,0000.0,0007.08,0002.91,0002.51
2022-10-20 21:58:00,,0823.0,5.00,0.00,29.5,27.6,00.0,38.2,31.2,06.4,0000.0,0007.52,0002.86,0002.41
2022-10-20 21:59:00,,0823.0,4.98,0.00,29.5,27.8,00.0,38.2,31.3,06.5,0000.0,0007.85,0003.14,0002.75
